Location: Star Dogged Moon Observatory
(29.7756°N, 82.0783°W)
Time: 20:54:16
(UTC-04:00)

ARGOS - Visible Passes

Search period start: 25 June 2016 00:00
Search period end: 05 July 2016 00:00
Orbit: 820 x 835 km, 98.7° (Epoch: 24 June)

Date Brightness Start Highest point End Pass type
(mag) Time Alt. Az. Time Alt. Az. Time Alt. Az.
25 Jun 3.0 22:55:49 68° SE 22:56:24 77° ENE 23:01:48 10° N visible
26 Jun 3.4 22:37:03 45° ESE 22:37:57 49° ENE 22:43:07 10° N visible
27 Jun 5.4 00:18:34 15° W 00:18:34 15° W 00:21:26 10° WNW visible
27 Jun 4.0 22:18:17 29° E 22:19:31 32° ENE 22:24:15 10° N visible
27 Jun 4.8 23:59:48 24° W 23:59:48 24° W 00:03:59 10° NW visible
28 Jun 4.6 21:59:31 19° E 22:01:08 21° ENE 22:05:06 10° NNE visible
28 Jun 4.2 23:41:02 37° W 23:41:03 37° W 23:46:02 10° NNW visible
29 Jun 5.0 21:40:45 11° E 21:42:49 14° ENE 21:45:28 10° NE visible
29 Jun 3.4 23:22:16 58° WSW 23:22:29 58° W 23:27:48 10° NNW visible
30 Jun 3.0 23:03:30 76° SSE 23:03:57 89° WSW 23:09:22 10° NNW visible
01 Jul 3.2 22:44:45 54° ESE 22:45:28 59° ENE 22:50:46 10° N visible
02 Jul 5.6 00:26:16 12° W 00:26:16 12° W 00:28:10 10° WNW visible
02 Jul 3.8 22:25:59 35° E 22:27:02 38° ENE 22:31:58 10° N visible
03 Jul 5.1 00:07:30 20° W 00:07:30 20° W 00:11:10 10° NW visible
03 Jul 4.4 22:07:14 23° E 22:08:38 25° ENE 22:12:57 10° NNE visible
03 Jul 4.5 23:48:45 31° W 23:48:45 31° W 23:53:23 10° NW visible
04 Jul 4.8 21:48:29 14° E 21:50:17 17° ENE 21:53:34 10° NNE visible
04 Jul 3.7 23:30:00 48° WSW 23:30:04 48° W 23:35:15 10° NNW visible
